This is the latest recevied weather packets stored in our database for station/object K7KAZ. If no packets are shown the sender has not sent any weather packets the latest 10 day(s).
| Time | Temp. | Humidity | Pressure | Rain* | Wind** | Luminosity | Snow |
|---|---|---|---|---|---|---|---|
| 1778032385 | 22.78° C | 29% | 1012.9 hPa | 0 mm | - | 15 W/m² | - |
| 1778032081 | 22.78° C | 29% | 1012.6 hPa | 0 mm | - | 21 W/m² | - |
| 1778031778 | 22.78° C | 29% | 1012.7 hPa | 0 mm | - | 26 W/m² | - |
| 1778031475 | 22.78° C | 29% | 1012.8 hPa | 0 mm | - | 23 W/m² | - |
| 1778031172 | 22.78° C | 29% | 1012.6 hPa | 0 mm | - | 40 W/m² | - |
| 1778030868 | 22.78° C | 29% | 1012.6 hPa | 0 mm | - | 55 W/m² | - |
| 1778030565 | 23.33° C | 29% | 1012.5 hPa | 0 mm | - | 67 W/m² | - |
| 1778030263 | 22.78° C | 29% | 1012.6 hPa | 0 mm | - | 73 W/m² | - |
| 1778029959 | 23.33° C | 29% | 1012.5 hPa | 0 mm | - | 88 W/m² | - |
| 1778029657 | 23.33° C | 28% | 1012.4 hPa | 0 mm | - | 106 W/m² | - |
| 1778029354 | 23.33° C | 28% | 1012.3 hPa | 0 mm | - | 114 W/m² | - |
| 1778029051 | 23.89° C | 28% | 1012.2 hPa | 0 mm | - | 133 W/m² | - |
| 1778028748 | 23.33° C | 28% | 1012.3 hPa | 0 mm | - | 131 W/m² | - |
| 1778028444 | 23.33° C | 28% | 1012.2 hPa | 0 mm | - | 191 W/m² | - |
| 1778028142 | 23.33° C | 28% | 1012.3 hPa | 0 mm | - | 187 W/m² | - |
| 1778027837 | 22.78° C | 28% | 1012.2 hPa | 0 mm | - | 87 W/m² | - |
| 1778027534 | 23.33° C | 27% | 1012.1 hPa | 0 mm | - | 57 W/m² | - |
| 1778027230 | 23.33° C | 27% | 1012.2 hPa | 0 mm | - | 64 W/m² | - |
| 1778026926 | 23.33° C | 26% | 1012.2 hPa | 0 mm | - | 276 W/m² | - |
| 1778026622 | 23.89° C | 26% | 1012 hPa | 0 mm | - | 303 W/m² | - |
| 1778026320 | 23.89° C | 26% | 1012.2 hPa | 0 mm | - | 303 W/m² | - |
| 1778026017 | 23.33° C | 28% | 1012 hPa | 0 mm | - | 102 W/m² | - |
| 1778025714 | 23.89° C | 28% | 1012 hPa | 0 mm | - | 333 W/m² | - |
| 1778025412 | 23.33° C | 28% | 1012 hPa | 0 mm | - | 297 W/m² | - |
| 1778025109 | 23.33° C | 28% | 1012 hPa | 0 mm | - | 346 W/m² | - |
* Rain latest hour (hover to see other rain measurements)
** Current wind speed in m/s (hover to see current wind gust speed)